Back to catalog

CZ-6A DEB

AliveSSO
NORAD 54444·DEBRIS·🇨🇳 China

Launched Nov 11, 2022 from Taiyuan Satellite Launch Center

Loading…

Next Passes (next 24 hours)

TLE

FreshSource: Space-Track

Epoch: Sep 14, 2026, 21:51 UTC

1 54444U 22151FU  26257.91072712  .00001484  00000-0  35667-3 0  9990
2 54444  98.7180 325.8215 0110355 328.1518  31.3034 14.51371099202003

Track CZ-6A DEB in real time with AllMySat

Download on the App Store